Home > Time Zones > World Clock > Weather > U.S.A. > Erie > Past weeks

Flag for U.S.A. Weather past 2 weeks in Erie, Pennsylvania, U.S.A.

Now
32 °F

Snow. Fog.


Feels Like: 27 °F
Forecast: 27 / 37 °F
Wind: 5 mph from Southeast

Location: Erie International Airport

Current Time: Mar 31, 2015 at 8:13:49 AM

Latest Report: Mar 31, 2015 at 7:54 AM


Visibility: 0 mi

Pressure: 29.81 "Hg

Humidity: 92%

Dew point: 30 °F

Location of ErieLocation

Historic Weather in Erie — Graph

°F

Erie temperature yesterday

Maximum temperature yesterday: 47 °F (at 2:51 PM)
Minimum temperature yesterday: 30 °F (at 11:51 PM)
Average temperature yesterday: 40 °F

Past Weeks' High & Low Weather Summary

 TemperatureHumidityPressure
High55 °F (Mar 16, 11:51 PM)93% (Mar 21, 12:51 PM)30.40 "Hg (Mar 21, 12:51 PM)
Low16 °F (Mar 23, 5:51 AM)25% (Mar 29, 3:51 PM)29.66 "Hg (Mar 17, 1:51 AM)
Average32 °F65%30.10 "Hg
* Reported Mar 16 6:51 AM — Mar 31 6:51 AM, Erie, Weather by CustomWeather, © 2015

Note: Actual official high and low records may vary slightly from our data, if they occured in-between our weather recording intervals... More about our weather records

Advertising

Erie weather history for previous 24 hours

 ConditionsComfort  
Time TempWeatherWind HumidityBarometerVisibility
6:51 AM
Tue, Mar 31
32 °FLight snow. Ice fog.7 mph88%29.85 "Hg1 mi
5:58 AM33 °FLight snow. Overcast.6 mph75%29.85 "Hg2 mi
4:51 AM32 °FOvercast.5 mph75%29.92 "Hg10 mi
3:51 AM30 °FMostly cloudy.5 mph82%29.93 "Hg10 mi
2:51 AM29 °FClear.3 mph85%29.94 "Hg10 mi
1:51 AM29 °FClear.3 mph85%29.96 "Hg10 mi
12:51 AM28 °FClear.No wind85%29.98 "Hg10 mi
11:51 PM
Mon, Mar 30
30 °FClear.No wind82%30.00 "Hg10 mi
10:51 PM32 °FClear.No wind79%29.99 "Hg10 mi
9:51 PM33 °FClear.No wind78%29.97 "Hg10 mi
8:51 PM36 °FClear.No wind73%29.94 "Hg10 mi
7:51 PM38 °FScattered clouds.5 mph68%29.91 "Hg10 mi
6:51 PM41 °FMostly cloudy.8 mph58%29.90 "Hg10 mi
5:51 PM44 °FOvercast.14 mph47%29.88 "Hg10 mi
4:51 PM47 °FOvercast.23 mph37%29.86 "Hg10 mi
3:51 PM47 °FPartly sunny.21 mph41%29.86 "Hg10 mi
2:51 PM47 °FSunny.18 mph44%29.87 "Hg10 mi
1:51 PM44 °FPartly sunny.22 mph51%29.90 "Hg10 mi
12:51 PM43 °FSunny.23 mph56%29.90 "Hg10 mi
11:51 AM41 °FPartly sunny.22 mph60%29.90 "Hg10 mi
10:51 AM40 °FMostly cloudy.18 mph68%29.90 "Hg10 mi
9:51 AM38 °FMostly cloudy.16 mph73%29.87 "Hg10 mi
8:51 AM40 °FMore clouds than sun.15 mph65%29.85 "Hg10 mi
Weather by CustomWeather, © 2015

See weather overviewHow to use our weather pages